Terug naar catalogus

KUIPER-00142

ActiefCommunicatieLEO
NORAD 65766·PAYLOAD·🇺🇸 United States

Gelanceerd Sep 25, 2025 vanaf Cape Canaveral Space Force Station

Loading…

Volgende Passages (komende 24 uur)

TLE

VersSource: CelesTrak SupGP

Epoch: Sep 14, 2026, 22:55 UTC

1 65766C 25217E   26257.95498843  .00003556  00000+0  46556-3 0  2573
2 65766  51.8980 278.6483 0000515  64.8709 175.2775 14.79919086    15

Volg KUIPER-00142 in realtime met AllMySat

Download on the App Store